Location: ?????
(31.8092°N, 35.2590°E)
Time: 04:00:10
(UTC+00:00)

Lacrosse 5 - Pass Details

Date: 25 October 2021
Orbit: 714 x 724 km, 57.0° (Epoch: 28 August)

Event Time Altitude Azimuth Distance (km) Brightness Sun altitude
Rises 16:26:05 0° 189° (S) 3,118 5.3 -19.8°
Reaches altitude 10° 16:28:44 10° 178° (S) 2,202 4.4 -20.3°
Enters shadow 16:31:38 25° 147° (SSE) 1,449 3.1 -20.9°
